Flag for U.S.A. Weather past 2 weeks in Hollywood, Florida, U.S.A.

Now
78 °F

Passing clouds.


Feels Like: 80 °F
Forecast: 76 / 85 °F
Wind: 12 mph from East

Location: Fort Lauderdale / Hollywood International Airport

Current Time: May 29, 2015 at 12:43:51 AM

Latest Report: May 28, 2015 at 11:53 PM


Visibility: 10 mi

Pressure: 30.07 "Hg

Humidity: 62%

Dew point: 64 °F

Location of HollywoodLocation

Historic Weather in Hollywood — Graph

°F

Hollywood temperature yesterday

Maximum temperature yesterday: 85 °F (at 12:53 PM)
Minimum temperature yesterday: 77 °F (at 2:53 AM)
Average temperature yesterday: 80 °F

Past Weeks' High & Low Weather Summary

 TemperatureHumidityPressure
High90 °F (May 21, 12:53 PM)94% (May 20, 4:53 AM)30.20 "Hg (May 20, 4:53 AM)
Low74 °F (May 20, 4:53 AM)49% (May 20, 3:53 PM)29.93 "Hg (May 20, 6:53 PM)
Average81 °F72%30.10 "Hg
* Reported May 13 10:53 PM — May 28 10:53 PM, Hollywood, Weather by CustomWeather, © 2015

Note: Actual official high and low records may vary slightly from our data, if they occured in-between our weather recording intervals... More about our weather records

Advertising

Hollywood weather history for previous 24 hours

 ConditionsComfort  
Time TempWeatherWind HumidityBarometerVisibility
10:53 PM
Thu, May 28
78 °FPassing clouds.9 mph60%30.07 "Hg10 mi
9:53 PM78 °FPassing clouds.12 mph64%30.07 "Hg10 mi
8:53 PM78 °FBroken clouds.12 mph66%30.05 "Hg10 mi
7:53 PM79 °FMostly cloudy.15 mph60%30.05 "Hg10 mi
6:53 PM78 °FLight rain. Mostly cloudy.10 mph71%30.06 "Hg8 mi
5:53 PM81 °FScattered clouds.14 mph62%30.05 "Hg10 mi
4:53 PM80 °FCloudy.9 mph62%30.06 "Hg10 mi
3:53 PM84 °FBroken clouds.12 mph59%30.06 "Hg10 mi
2:53 PM83 °FBroken clouds.15 mph63%30.07 "Hg10 mi
1:53 PM84 °FBroken clouds.14 mph57%30.08 "Hg10 mi
12:53 PM85 °FBroken clouds.13 mph55%30.09 "Hg10 mi
11:53 AM83 °FPartly sunny.17 mph59%30.10 "Hg10 mi
10:53 AM82 °FBroken clouds.16 mph63%30.10 "Hg10 mi
9:53 AM81 °FBroken clouds.17 mph62%30.09 "Hg10 mi
8:53 AM81 °FScattered clouds.14 mph58%30.08 "Hg10 mi
7:53 AM79 °FScattered clouds.13 mph62%30.07 "Hg10 mi
6:53 AM77 °FPassing clouds.14 mph66%30.06 "Hg10 mi
5:53 AM77 °FPassing clouds.13 mph58%30.05 "Hg10 mi
4:53 AM77 °FPassing clouds.16 mph62%30.04 "Hg10 mi
3:53 AM77 °FPassing clouds.17 mph64%30.05 "Hg10 mi
2:53 AM77 °FPassing clouds.13 mph66%30.05 "Hg10 mi
1:53 AM78 °FPassing clouds.12 mph64%30.08 "Hg10 mi
12:53 AM78 °FPassing clouds.15 mph60%30.10 "Hg10 mi
Weather by CustomWeather, © 2015

See weather overviewHow to use our weather pages